Time,TemperatureF,DewpointF,PressureIn,WindDirection,WindDirectionDegrees,WindSpeedMPH,WindSpeedGustMPH,Humidity,HourlyPrecipIn,Conditions,Clouds,dailyrainin,SoftwareType,DateUTC
2013-03-01 00:04:00,39.0,25.5,29.82,SW,232,2.9,3.6,58,0.00,,,0.00,VWS V14.00,2013-03-01 05:04:00,
2013-03-01 00:05:00,38.8,25.3,29.82,WSW,255,2.5,3.6,58,0.00,,,0.00,VWS V14.00,2013-03-01 05:05:00,
2013-03-01 00:06:00,38.8,25.3,29.82,West,278,2.0,2.5,58,0.00,,,0.00,VWS V14.00,2013-03-01 05:06:00,
2013-03-01 00:11:00,38.8,25.3,29.82,SW,232,0.9,2.5,58,0.00,,,0.00,VWS V14.00,2013-03-01 05:11:00,
2013-03-01 00:16:00,38.8,25.8,29.82,WNW,300,1.3,3.1,59,0.00,,,0.00,VWS V14.00,2013-03-01 05:16:00,
2013-03-01 00:21:00,38.8,25.8,29.82,WSW,255,2.7,3.1,59,0.00,,,0.00,VWS V14.00,2013-03-01 05:21:00,
2013-03-01 00:26:00,38.7,25.2,29.82,West,278,1.6,2.5,58,0.00,,,0.00,VWS V14.00,2013-03-01 05:26:00,
2013-03-01 00:31:00,38.7,25.6,29.82,WNW,300,1.3,1.6,59,0.00,,,0.00,VWS V14.00,2013-03-01 05:31:00,
2013-03-01 00:36:00,38.7,25.2,29.82,SSW,210,0.0,2.0,58,0.00,,,0.00,VWS V14.00,2013-03-01 05:36:00,
2013-03-01 00:41:00,38.7,25.6,29.82,WSW,255,1.6,3.1,59,0.00,,,0.00,VWS V14.00,2013-03-01 05:41:00,
2013-03-01 00:46:00,38.7,25.6,29.82,WNW,300,3.1,3.1,59,0.00,,,0.00,VWS V14.00,2013-03-01 05:46:00,
2013-03-01 00:51:00,38.7,25.6,29.82,WSW,255,2.0,2.2,59,0.00,,,0.00,VWS V14.00,2013-03-01 05:51:00,
2013-03-01 00:56:00,38.7,25.6,29.82,WNW,300,0.9,1.3,59,0.00,,,0.00,VWS V14.00,2013-03-01 05:56:00,
2013-03-01 01:02:00,38.7,25.2,29.82,South,188,0.0,2.0,58,0.00,,,0.00,VWS V14.00,2013-03-01 06:02:00,
2013-03-01 01:07:00,38.5,25.0,29.82,South,188,2.5,3.1,58,0.00,,,0.00,VWS V14.00,2013-03-01 06:07:00,
2013-03-01 01:12:00,38.5,25.4,29.82,West,278,2.0,2.5,59,0.00,,,0.00,VWS V14.00,2013-03-01 06:12:00,
2013-03-01 01:17:00,38.5,26.2,29.82,South,188,1.3,2.5,61,0.00,,,0.00,VWS V14.00,2013-03-01 06:17:00,
2013-03-01 01:22:00,38.3,25.2,29.82,WNW,300,1.6,2.5,59,0.00,,,0.00,VWS V14.00,2013-03-01 06:22:00,
2013-03-01 01:27:00,38.3,25.2,29.82,West,278,1.6,2.0,59,0.00,,,0.00,VWS V14.00,2013-03-01 06:27:00,
2013-03-01 01:32:00,38.3,25.2,29.82,West,278,1.3,2.7,59,0.00,,,0.00,VWS V14.00,2013-03-01 06:32:00,
2013-03-01 01:37:00,38.1,25.1,29.79,WNW,300,1.3,2.0,59,0.00,,,0.00,VWS V14.00,2013-03-01 06:37:00,
2013-03-01 01:42:00,38.1,25.1,29.79,WSW,255,0.9,2.7,59,0.00,,,0.00,VWS V14.00,2013-03-01 06:42:00,
2013-03-01 01:47:00,38.1,25.5,29.79,West,278,1.1,2.5,60,0.00,,,0.00,VWS V14.00,2013-03-01 06:47:00,
2013-03-01 01:52:00,38.1,25.1,29.79,WNW,300,0.9,1.6,59,0.00,,,0.00,VWS V14.00,2013-03-01 06:52:00,
2013-03-01 01:57:00,37.9,25.3,29.79,SW,232,0.9,2.7,60,0.00,,,0.00,VWS V14.00,2013-03-01 06:57:00,
2013-03-01 02:02:00,37.9,25.3,29.79,NW,322,0.0,0.0,60,0.00,,,0.00,VWS V14.00,2013-03-01 07:02:00,
2013-03-01 02:07:00,37.9,25.3,29.79,West,278,0.0,1.3,60,0.00,,,0.00,VWS V14.00,2013-03-01 07:07:00,
2013-03-01 02:12:00,37.8,25.1,29.79,WSW,255,0.0,2.9,60,0.00,,,0.00,VWS V14.00,2013-03-01 07:12:00,
2013-03-01 02:18:00,37.9,25.3,29.79,WNW,300,1.3,2.7,60,0.00,,,0.00,VWS V14.00,2013-03-01 07:18:00,
2013-03-01 02:23:00,37.9,25.3,29.82,NW,322,1.1,2.0,60,0.00,,,0.00,VWS V14.00,2013-03-01 07:23:00,
2013-03-01 02:28:00,37.8,24.7,29.82,WNW,300,0.0,0.0,59,0.00,,,0.00,VWS V14.00,2013-03-01 07:28:00,
2013-03-01 02:33:00,37.6,25.0,29.82,NW,322,2.5,2.5,60,0.00,,,0.00,VWS V14.00,2013-03-01 07:33:00,
2013-03-01 02:38:00,37.6,25.0,29.82,NW,322,1.1,2.5,60,0.00,,,0.00,VWS V14.00,2013-03-01 07:38:00,
2013-03-01 02:43:00,37.4,24.8,29.82,WNW,300,0.0,2.0,60,0.00,,,0.00,VWS V14.00,2013-03-01 07:43:00,
2013-03-01 02:48:00,37.4,24.8,29.82,West,278,0.0,0.0,60,0.00,,,0.00,VWS V14.00,2013-03-01 07:48:00,
2013-03-01 02:53:00,37.2,25.0,29.82,West,278,0.9,2.5,61,0.00,,,0.00,VWS V14.00,2013-03-01 07:53:00,
2013-03-01 02:58:00,37.2,25.0,29.82,South,188,1.3,1.3,61,0.00,,,0.00,VWS V14.00,2013-03-01 07:58:00,
2013-03-01 03:03:00,37.4,24.8,29.82,WNW,300,1.3,1.3,60,0.00,,,0.00,VWS V14.00,2013-03-01 08:03:00,
2013-03-01 03:08:00,37.4,24.8,29.82,WNW,300,0.0,0.0,60,0.00,,,0.00,VWS V14.00,2013-03-01 08:08:00,
2013-03-01 03:13:00,37.4,24.8,29.82,WNW,300,0.0,0.0,60,0.00,,,0.00,VWS V14.00,2013-03-01 08:13:00,
2013-03-01 03:18:00,37.4,24.8,29.82,WNW,300,1.6,1.6,60,0.00,,,0.00,VWS V14.00,2013-03-01 08:18:00,
2013-03-01 03:23:00,37.4,25.2,29.82,WNW,300,0.0,2.0,61,0.00,,,0.00,VWS V14.00,2013-03-01 08:23:00,
2013-03-01 03:28:00,37.4,24.8,29.82,WNW,300,0.0,0.0,60,0.00,,,0.00,VWS V14.00,2013-03-01 08:28:00,
2013-03-01 03:33:00,37.4,25.2,29.82,West,278,0.0,1.3,61,0.00,,,0.00,VWS V14.00,2013-03-01 08:33:00,
2013-03-01 03:38:00,37.2,25.4,29.82,West,278,0.0,0.0,62,0.00,,,0.00,VWS V14.00,2013-03-01 08:38:00,
2013-03-01 03:44:00,37.2,25.0,29.82,SSE,165,0.0,0.0,61,0.00,,,0.00,VWS V14.00,2013-03-01 08:44:00,
2013-03-01 03:49:00,37.2,25.4,29.82,WSW,255,0.0,0.0,62,0.00,,,0.00,VWS V14.00,2013-03-01 08:49:00,
2013-03-01 03:54:00,37.2,25.4,29.82,North,8,0.0,0.0,62,0.00,,,0.00,VWS V14.00,2013-03-01 08:54:00,
2013-03-01 03:59:00,37.4,25.2,29.82,SSE,165,0.0,1.3,61,0.00,,,0.00,VWS V14.00,2013-03-01 08:59:00,
2013-03-01 04:04:00,37.4,25.2,29.82,SW,232,0.0,0.0,61,0.00,,,0.00,VWS V14.00,2013-03-01 09:04:00,
2013-03-01 04:09:00,37.2,25.4,29.82,NNE,30,0.0,1.3,62,0.00,,,0.00,VWS V14.00,2013-03-01 09:09:00,
2013-03-01 04:14:00,37.2,25.4,29.82,NNE,30,0.0,0.0,62,0.00,,,0.00,VWS V14.00,2013-03-01 09:14:00,
2013-03-01 04:19:00,37.2,25.4,29.82,SW,232,0.0,0.0,62,0.00,,,0.00,VWS V14.00,2013-03-01 09:19:00,
2013-03-01 04:24:00,37.0,25.6,29.82,SE,142,0.0,0.0,63,0.00,,,0.00,VWS V14.00,2013-03-01 09:24:00,
2013-03-01 04:29:00,37.0,25.6,29.82,WNW,300,0.0,0.0,63,0.00,,,0.00,VWS V14.00,2013-03-01 09:29:00,
2013-03-01 04:34:00,37.0,26.0,29.82,SSW,210,0.0,0.0,64,0.00,,,0.00,VWS V14.00,2013-03-01 09:34:00,
2013-03-01 04:39:00,37.0,26.0,29.82,SE,142,0.0,0.0,64,0.00,,,0.00,VWS V14.00,2013-03-01 09:39:00,
2013-03-01 04:44:00,37.0,25.6,29.82,SSE,165,0.0,0.0,63,0.00,,,0.00,VWS V14.00,2013-03-01 09:44:00,
2013-03-01 04:49:00,37.0,26.0,29.82,SSE,165,0.0,1.3,64,0.00,,,0.00,VWS V14.00,2013-03-01 09:49:00,
2013-03-01 04:55:00,36.9,26.2,29.82,SSE,165,0.9,1.6,65,0.00,,,0.00,VWS V14.00,2013-03-01 09:55:00,
2013-03-01 05:00:00,37.0,26.4,29.82,SE,142,0.0,1.6,65,0.00,,,0.00,VWS V14.00,2013-03-01 10:00:00,
2013-03-01 05:05:00,36.9,26.2,29.82,South,188,0.0,0.0,65,0.00,,,0.00,VWS V14.00,2013-03-01 10:05:00,
2013-03-01 05:10:00,36.9,26.2,29.82,SE,142,0.0,0.0,65,0.00,,,0.00,VWS V14.00,2013-03-01 10:10:00,
2013-03-01 05:15:00,36.9,25.8,29.82,SE,142,0.0,0.0,64,0.00,,,0.00,VWS V14.00,2013-03-01 10:15:00,
2013-03-01 05:20:00,36.9,26.2,29.82,SE,142,0.0,0.0,65,0.00,,,0.00,VWS V14.00,2013-03-01 10:20:00,
2013-03-01 05:25:00,36.9,25.8,29.82,SE,142,0.0,0.0,64,0.00,,,0.00,VWS V14.00,2013-03-01 10:25:00,
2013-03-01 05:30:00,36.9,25.8,29.82,SE,142,0.0,0.0,64,0.00,,,0.00,VWS V14.00,2013-03-01 10:30:00,
2013-03-01 05:35:00,36.9,25.8,29.82,SE,142,0.0,0.0,64,0.00,,,0.00,VWS V14.00,2013-03-01 10:35:00,
2013-03-01 05:40:00,36.9,25.8,29.82,West,278,0.0,0.0,64,0.00,,,0.00,VWS V14.00,2013-03-01 10:40:00,
2013-03-01 05:45:00,36.9,25.8,29.82,West,278,0.0,0.0,64,0.00,,,0.00,VWS V14.00,2013-03-01 10:45:00,
2013-03-01 05:50:00,36.9,25.8,29.82,WNW,300,0.0,0.0,64,0.00,,,0.00,VWS V14.00,2013-03-01 10:50:00,
2013-03-01 05:56:00,36.9,26.2,29.82,WNW,300,0.0,0.0,65,0.00,,,0.00,VWS V14.00,2013-03-01 10:56:00,
2013-03-01 06:04:00,36.9,25.8,29.82,West,278,0.0,0.0,64,0.00,,,0.00,VWS V14.00,2013-03-01 11:04:00,
2013-03-01 06:09:00,36.9,25.8,29.82,West,278,0.0,0.0,64,0.00,,,0.00,VWS V14.00,2013-03-01 11:09:00,
2013-03-01 06:14:00,36.9,25.8,29.82,SE,142,0.0,0.0,64,0.00,,,0.00,VWS V14.00,2013-03-01 11:14:00,
2013-03-01 06:19:00,36.9,25.8,29.82,SE,142,0.0,0.0,64,0.00,,,0.00,VWS V14.00,2013-03-01 11:19:00,
2013-03-01 06:24:00,37.0,26.0,29.82,West,278,1.3,1.6,64,0.00,,,0.00,VWS V14.00,2013-03-01 11:24:00,
2013-03-01 06:29:00,37.0,26.4,29.82,WNW,300,1.1,2.0,65,0.00,,,0.00,VWS V14.00,2013-03-01 11:29:00,
2013-03-01 06:34:00,37.0,26.0,29.82,NW,322,0.0,1.3,64,0.00,,,0.00,VWS V14.00,2013-03-01 11:34:00,
2013-03-01 06:39:00,37.0,26.0,29.82,NW,322,0.0,0.0,64,0.00,,,0.00,VWS V14.00,2013-03-01 11:39:00,
2013-03-01 06:44:00,37.0,26.0,29.82,West,278,0.0,2.2,64,0.00,,,0.00,VWS V14.00,2013-03-01 11:44:00,
2013-03-01 06:49:00,37.2,26.2,29.85,NNW,345,0.0,1.3,64,0.00,,,0.00,VWS V14.00,2013-03-01 11:49:00,
2013-03-01 06:54:00,37.2,26.2,29.85,NNW,345,0.0,0.0,64,0.00,,,0.00,VWS V14.00,2013-03-01 11:54:00,
2013-03-01 07:00:00,37.2,26.2,29.85,WNW,300,0.0,0.0,64,0.00,,,0.00,VWS V14.00,2013-03-01 12:00:00,
2013-03-01 07:05:00,37.4,26.4,29.82,West,278,0.9,1.1,64,0.00,,,0.00,VWS V14.00,2013-03-01 12:05:00,
2013-03-01 07:10:00,37.4,26.0,29.82,SW,232,0.0,2.5,63,0.00,,,0.00,VWS V14.00,2013-03-01 12:10:00,
2013-03-01 07:15:00,37.6,26.5,29.82,SW,232,1.3,1.3,64,0.00,,,0.00,VWS V14.00,2013-03-01 12:15:00,
2013-03-01 07:20:00,37.6,26.1,29.82,WNW,300,0.0,2.2,63,0.00,,,0.00,VWS V14.00,2013-03-01 12:20:00,
2013-03-01 07:25:00,37.8,26.3,29.82,SE,142,0.0,0.0,63,0.00,,,0.00,VWS V14.00,2013-03-01 12:25:00,
2013-03-01 07:30:00,37.9,26.5,29.82,SE,142,0.0,0.0,63,0.00,,,0.00,VWS V14.00,2013-03-01 12:30:00,
2013-03-01 07:35:00,38.1,26.6,29.85,WSW,255,0.9,0.9,63,0.00,,,0.00,VWS V14.00,2013-03-01 12:35:00,
2013-03-01 07:40:00,38.3,26.8,29.85,SW,232,0.0,0.0,63,0.00,,,0.00,VWS V14.00,2013-03-01 12:40:00,
2013-03-01 07:45:00,38.5,26.6,29.85,West,278,1.1,1.1,62,0.00,,,0.00,VWS V14.00,2013-03-01 12:45:00,
2013-03-01 07:50:00,38.7,26.8,29.85,SW,232,0.0,0.0,62,0.00,,,0.00,VWS V14.00,2013-03-01 12:50:00,
2013-03-01 07:55:00,38.8,27.0,29.85,SW,232,0.0,0.0,62,0.00,,,0.00,VWS V14.00,2013-03-01 12:55:00,
2013-03-01 08:00:00,39.0,26.7,29.85,SW,232,2.5,2.9,61,0.00,,,0.00,VWS V14.00,2013-03-01 13:00:00,
2013-03-01 08:06:00,39.2,26.5,29.85,WSW,255,1.3,2.0,60,0.00,,,0.00,VWS V14.00,2013-03-01 13:06:00,
2013-03-01 08:11:00,39.4,26.7,29.85,WNW,300,0.0,0.0,60,0.00,,,0.00,VWS V14.00,2013-03-01 13:11:00,
2013-03-01 08:16:00,39.7,27.0,29.85,WNW,300,0.0,0.0,60,0.00,,,0.00,VWS V14.00,2013-03-01 13:16:00,
2013-03-01 08:21:00,39.9,27.2,29.85,West,278,0.0,1.1,60,0.00,,,0.00,VWS V14.00,2013-03-01 13:21:00,
2013-03-01 08:26:00,40.1,26.9,29.85,West,278,1.3,1.3,59,0.00,,,0.00,VWS V14.00,2013-03-01 13:26:00,
2013-03-01 08:31:00,40.3,27.1,29.85,WSW,255,0.9,1.3,59,0.00,,,0.00,VWS V14.00,2013-03-01 13:31:00,
2013-03-01 08:36:00,40.5,26.9,29.85,WNW,300,4.3,4.3,58,0.00,,,0.00,VWS V14.00,2013-03-01 13:36:00,
2013-03-01 08:41:00,40.6,26.6,29.85,West,278,3.1,3.4,57,0.00,,,0.00,VWS V14.00,2013-03-01 13:41:00,
2013-03-01 08:46:00,41.0,27.0,29.85,WSW,255,1.3,2.7,57,0.00,,,0.00,VWS V14.00,2013-03-01 13:46:00,
2013-03-01 08:51:00,41.0,26.5,29.85,West,278,1.3,2.5,56,0.00,,,0.00,VWS V14.00,2013-03-01 13:51:00,
2013-03-01 08:56:00,41.5,27.0,29.85,West,278,2.2,4.0,56,0.00,,,0.00,VWS V14.00,2013-03-01 13:56:00,
2013-03-01 09:01:00,43.5,28.4,29.85,SW,232,0.0,2.9,55,0.00,,,0.00,VWS V14.00,2013-03-01 14:01:00,
2013-03-01 09:06:00,45.0,27.0,29.85,West,278,6.0,6.5,49,0.00,,,0.00,VWS V14.00,2013-03-01 14:06:00,
2013-03-01 09:11:00,45.7,28.1,29.85,WSW,255,2.9,3.6,50,0.00,,,0.00,VWS V14.00,2013-03-01 14:11:00,
2013-03-01 09:17:00,46.2,27.6,29.85,South,188,2.7,4.7,48,0.00,,,0.00,VWS V14.00,2013-03-01 14:17:00,
2013-03-01 09:22:00,46.6,26.4,29.85,SW,232,2.9,4.7,45,0.00,,,0.00,VWS V14.00,2013-03-01 14:22:00,
2013-03-01 09:27:00,47.3,27.6,29.85,WNW,300,5.4,5.4,46,0.00,,,0.00,VWS V14.00,2013-03-01 14:27:00,
2013-03-01 09:32:00,47.8,28.1,29.85,WNW,300,4.0,4.0,46,0.00,,,0.00,VWS V14.00,2013-03-01 14:32:00,
2013-03-01 09:37:00,47.8,27.0,29.82,West,278,3.6,6.3,44,0.00,,,0.00,VWS V14.00,2013-03-01 14:37:00,
2013-03-01 09:42:00,46.6,25.3,29.82,WNW,300,4.0,6.5,43,0.00,,,0.00,VWS V14.00,2013-03-01 14:42:00,
2013-03-01 09:47:00,46.6,25.3,29.82,West,278,3.8,3.8,43,0.00,,,0.00,VWS V14.00,2013-03-01 14:47:00,
2013-03-01 09:52:00,45.9,24.6,29.85,West,278,6.3,6.3,43,0.00,,,0.00,VWS V14.00,2013-03-01 14:52:00,
2013-03-01 09:57:00,44.8,23.7,29.85,West,278,4.7,4.7,43,0.00,,,0.00,VWS V14.00,2013-03-01 14:57:00,
2013-03-01 10:02:00,45.0,23.8,29.85,NW,322,4.0,5.6,43,0.00,,,0.00,VWS V14.00,2013-03-01 15:02:00,
2013-03-01 10:07:00,45.1,24.0,29.85,NW,322,5.8,5.8,43,0.00,,,0.00,VWS V14.00,2013-03-01 15:07:00,
2013-03-01 10:12:00,44.8,23.1,29.85,WNW,300,4.3,6.3,42,0.00,,,0.00,VWS V14.00,2013-03-01 15:12:00,
2013-03-01 10:17:00,44.6,23.5,29.85,WNW,300,4.9,4.9,43,0.00,,,0.00,VWS V14.00,2013-03-01 15:17:00,
2013-03-01 10:23:00,44.4,23.9,29.85,NNE,30,1.3,3.4,44,0.00,,,0.00,VWS V14.00,2013-03-01 15:23:00,
2013-03-01 10:28:00,44.1,23.0,29.85,NNW,345,2.9,5.8,43,0.00,,,0.00,VWS V14.00,2013-03-01 15:28:00,
2013-03-01 10:33:00,44.2,23.7,29.85,NNW,345,2.0,2.9,44,0.00,,,0.00,VWS V14.00,2013-03-01 15:33:00,
2013-03-01 10:38:00,44.8,24.8,29.82,North,8,1.6,2.9,45,0.00,,,0.00,VWS V14.00,2013-03-01 15:38:00,
2013-03-01 10:43:00,45.0,24.9,29.82,WNW,300,3.1,3.6,45,0.00,,,0.00,VWS V14.00,2013-03-01 15:43:00,
2013-03-01 10:48:00,44.8,24.2,29.82,WNW,300,4.0,4.7,44,0.00,,,0.00,VWS V14.00,2013-03-01 15:48:00,
2013-03-01 10:53:00,44.6,24.0,29.85,NW,322,4.3,4.3,44,0.00,,,0.00,VWS V14.00,2013-03-01 15:53:00,
2013-03-01 10:58:00,44.4,23.9,29.85,WNW,300,1.6,3.6,44,0.00,,,0.00,VWS V14.00,2013-03-01 15:58:00,
2013-03-01 11:03:00,44.4,24.4,29.85,WNW,300,2.9,3.8,45,0.00,,,0.00,VWS V14.00,2013-03-01 16:03:00,
2013-03-01 11:08:00,44.4,24.4,29.85,West,278,2.9,2.9,45,0.00,,,0.00,VWS V14.00,2013-03-01 16:08:00,
2013-03-01 11:13:00,44.4,23.9,29.85,NW,322,2.0,3.4,44,0.00,,,0.00,VWS V14.00,2013-03-01 16:13:00,
2013-03-01 11:18:00,44.6,24.0,29.85,WNW,300,0.0,2.2,44,0.00,,,0.00,VWS V14.00,2013-03-01 16:18:00,
2013-03-01 11:23:00,44.6,24.0,29.82,West,278,3.6,3.6,44,0.00,,,0.00,VWS V14.00,2013-03-01 16:23:00,
2013-03-01 11:28:00,44.2,23.2,29.82,WNW,300,2.9,4.7,43,0.00,,,0.00,VWS V14.00,2013-03-01 16:28:00,
2013-03-01 11:34:00,44.1,23.6,29.82,WNW,300,2.7,5.4,44,0.00,,,0.00,VWS V14.00,2013-03-01 16:34:00,
2013-03-01 11:39:00,43.9,23.4,29.85,North,8,2.5,5.6,44,0.00,,,0.00,VWS V14.00,2013-03-01 16:39:00,
2013-03-01 11:44:00,43.9,23.4,29.85,NW,322,2.7,3.6,44,0.00,,,0.00,VWS V14.00,2013-03-01 16:44:00,
2013-03-01 11:49:00,43.7,23.8,29.85,NW,322,5.4,5.4,45,0.00,,,0.00,VWS V14.00,2013-03-01 16:49:00,
2013-03-01 11:54:00,43.5,23.6,29.85,West,278,3.1,4.3,45,0.00,,,0.00,VWS V14.00,2013-03-01 16:54:00,
2013-03-01 11:59:00,43.5,24.6,29.85,NNW,345,2.5,3.4,47,0.00,,,0.00,VWS V14.00,2013-03-01 16:59:00,
2013-03-01 12:04:00,43.5,24.6,29.85,West,278,1.3,3.4,47,0.00,,,0.00,VWS V14.00,2013-03-01 17:04:00,
2013-03-01 12:09:00,43.7,24.8,29.85,SW,232,1.1,3.6,47,0.00,,,0.00,VWS V14.00,2013-03-01 17:09:00,
2013-03-01 12:14:00,44.1,25.1,29.85,NW,322,2.5,3.4,47,0.00,,,0.00,VWS V14.00,2013-03-01 17:14:00,
2013-03-01 12:19:00,44.1,25.1,29.82,WSW,255,0.9,4.0,47,0.00,,,0.00,VWS V14.00,2013-03-01 17:19:00,
2013-03-01 12:24:00,44.1,24.6,29.82,SW,232,3.4,4.7,46,0.00,,,0.00,VWS V14.00,2013-03-01 17:24:00,
2013-03-01 12:29:00,44.1,25.1,29.82,West,278,3.1,3.1,47,0.00,,,0.00,VWS V14.00,2013-03-01 17:29:00,
2013-03-01 12:35:00,43.9,24.5,29.82,West,278,3.4,4.7,46,0.00,,,0.00,VWS V14.00,2013-03-01 17:35:00,
2013-03-01 12:40:00,43.7,24.3,29.82,NW,322,3.4,4.7,46,0.00,,,0.00,VWS V14.00,2013-03-01 17:40:00,
2013-03-01 12:45:00,43.7,24.8,29.82,WNW,300,2.0,4.0,47,0.00,,,0.00,VWS V14.00,2013-03-01 17:45:00,
2013-03-01 12:50:00,43.7,24.3,29.82,WNW,300,3.6,4.3,46,0.00,,,0.00,VWS V14.00,2013-03-01 17:50:00,
2013-03-01 12:55:00,43.5,24.1,29.82,WNW,300,2.7,4.3,46,0.00,,,0.00,VWS V14.00,2013-03-01 17:55:00,
2013-03-01 13:00:00,43.5,24.1,29.82,WNW,300,2.2,4.9,46,0.00,,,0.00,VWS V14.00,2013-03-01 18:00:00,
2013-03-01 13:05:00,43.7,24.3,29.82,WNW,300,3.8,3.8,46,0.00,,,0.00,VWS V14.00,2013-03-01 18:05:00,
2013-03-01 13:10:00,43.7,23.8,29.82,SW,232,2.0,2.0,45,0.00,,,0.00,VWS V14.00,2013-03-01 18:10:00,
2013-03-01 13:15:00,43.7,24.3,29.82,WSW,255,2.7,3.1,46,0.00,,,0.00,VWS V14.00,2013-03-01 18:15:00,
2013-03-01 13:20:00,43.5,23.6,29.79,West,278,1.1,2.9,45,0.00,,,0.00,VWS V14.00,2013-03-01 18:20:00,
2013-03-01 13:25:00,43.5,24.1,29.79,West,278,3.8,3.8,46,0.00,,,0.00,VWS V14.00,2013-03-01 18:25:00,
2013-03-01 13:30:00,43.7,24.3,29.79,WNW,300,2.5,3.1,46,0.00,,,0.00,VWS V14.00,2013-03-01 18:30:00,
2013-03-01 13:35:00,43.7,23.8,29.82,WNW,300,3.8,4.3,45,0.00,,,0.00,VWS V14.00,2013-03-01 18:35:00,
2013-03-01 13:40:00,43.7,24.3,29.82,West,278,2.0,2.7,46,0.00,,,0.00,VWS V14.00,2013-03-01 18:40:00,
2013-03-01 13:46:00,43.7,24.3,29.82,West,278,2.7,2.9,46,0.00,,,0.00,VWS V14.00,2013-03-01 18:46:00,
2013-03-01 13:51:00,43.7,24.3,29.82,WNW,300,4.3,5.6,46,0.00,,,0.00,VWS V14.00,2013-03-01 18:51:00,
2013-03-01 13:56:00,43.7,24.3,29.82,West,278,4.0,4.0,46,0.00,,,0.00,VWS V14.00,2013-03-01 18:56:00,
2013-03-01 14:01:00,43.7,23.8,29.82,NW,322,2.0,4.0,45,0.00,,,0.00,VWS V14.00,2013-03-01 19:01:00,
2013-03-01 14:06:00,43.9,23.9,29.82,West,278,1.6,2.5,45,0.00,,,0.00,VWS V14.00,2013-03-01 19:06:00,
2013-03-01 14:11:00,44.1,24.6,29.82,WSW,255,2.0,2.7,46,0.00,,,0.00,VWS V14.00,2013-03-01 19:11:00,
2013-03-01 14:16:00,44.1,24.6,29.82,West,278,2.5,4.0,46,0.00,,,0.00,VWS V14.00,2013-03-01 19:16:00,
2013-03-01 14:21:00,44.1,24.6,29.82,WNW,300,3.1,3.4,46,0.00,,,0.00,VWS V14.00,2013-03-01 19:21:00,
2013-03-01 14:26:00,44.1,24.1,29.82,NW,322,3.8,3.8,45,0.00,,,0.00,VWS V14.00,2013-03-01 19:26:00,
2013-03-01 14:31:00,43.9,23.9,29.82,SSW,210,2.5,3.1,45,0.00,,,0.00,VWS V14.00,2013-03-01 19:31:00,
2013-03-01 14:36:00,44.1,24.1,29.79,West,278,2.5,3.4,45,0.00,,,0.00,VWS V14.00,2013-03-01 19:36:00,
2013-03-01 14:41:00,44.1,24.1,29.79,NW,322,3.1,4.0,45,0.00,,,0.00,VWS V14.00,2013-03-01 19:41:00,
2013-03-01 14:46:00,44.1,24.1,29.79,NW,322,5.4,5.8,45,0.00,,,0.00,VWS V14.00,2013-03-01 19:46:00,
2013-03-01 14:51:00,44.1,23.6,29.79,WNW,300,5.8,5.8,44,0.00,,,0.00,VWS V14.00,2013-03-01 19:51:00,
2013-03-01 14:56:00,44.1,23.6,29.79,NNW,345,4.0,5.8,44,0.00,,,0.00,VWS V14.00,2013-03-01 19:56:00,
2013-03-01 15:01:00,44.1,23.6,29.79,West,278,2.7,4.9,44,0.00,,,0.00,VWS V14.00,2013-03-01 20:01:00,
2013-03-01 15:06:00,44.1,24.1,29.79,WSW,255,2.2,2.9,45,0.00,,,0.00,VWS V14.00,2013-03-01 20:06:00,
2013-03-01 15:11:00,44.2,24.3,29.79,WNW,300,2.5,2.7,45,0.00,,,0.00,VWS V14.00,2013-03-01 20:11:00,
2013-03-01 15:16:00,44.4,24.4,29.79,West,278,5.4,5.4,45,0.00,,,0.00,VWS V14.00,2013-03-01 20:16:00,
2013-03-01 15:22:00,44.4,24.4,29.79,WSW,255,2.7,6.3,45,0.00,,,0.00,VWS V14.00,2013-03-01 20:22:00,
2013-03-01 15:27:00,44.2,23.7,29.79,SW,232,3.6,4.3,44,0.00,,,0.00,VWS V14.00,2013-03-01 20:27:00,
2013-03-01 15:32:00,44.1,23.6,29.79,WNW,300,3.8,4.3,44,0.00,,,0.00,VWS V14.00,2013-03-01 20:32:00,
2013-03-01 15:37:00,44.1,23.6,29.79,NW,322,3.4,6.0,44,0.00,,,0.00,VWS V14.00,2013-03-01 20:37:00,
2013-03-01 15:42:00,44.1,24.1,29.79,WNW,300,2.5,4.7,45,0.00,,,0.00,VWS V14.00,2013-03-01 20:42:00,
2013-03-01 15:47:00,43.9,23.9,29.79,SW,232,3.6,5.8,45,0.00,,,0.00,VWS V14.00,2013-03-01 20:47:00,
2013-03-01 15:52:00,43.9,23.9,29.82,WNW,300,2.9,4.0,45,0.00,,,0.00,VWS V14.00,2013-03-01 20:52:00,
2013-03-01 15:57:00,43.9,23.9,29.82,South,188,2.7,3.6,45,0.00,,,0.00,VWS V14.00,2013-03-01 20:57:00,
2013-03-01 16:02:00,43.7,23.8,29.82,West,278,2.7,2.7,45,0.00,,,0.00,VWS V14.00,2013-03-01 21:02:00,
2013-03-01 16:07:00,43.7,23.8,29.82,WSW,255,2.7,3.1,45,0.00,,,0.00,VWS V14.00,2013-03-01 21:07:00,
2013-03-01 16:12:00,43.7,23.8,29.82,WNW,300,2.5,3.8,45,0.00,,,0.00,VWS V14.00,2013-03-01 21:12:00,
2013-03-01 16:17:00,43.7,24.3,29.82,WNW,300,0.0,2.2,46,0.00,,,0.00,VWS V14.00,2013-03-01 21:17:00,
2013-03-01 16:22:00,43.7,23.8,29.82,WSW,255,2.7,5.8,45,0.00,,,0.00,VWS V14.00,2013-03-01 21:22:00,
2013-03-01 16:27:00,43.7,23.8,29.82,West,278,4.7,4.7,45,0.00,,,0.00,VWS V14.00,2013-03-01 21:27:00,
2013-03-01 16:33:00,43.7,24.3,29.82,NW,322,3.4,3.4,46,0.00,,,0.00,VWS V14.00,2013-03-01 21:33:00,
2013-03-01 16:38:00,43.5,24.1,29.82,SW,232,2.0,3.4,46,0.00,,,0.00,VWS V14.00,2013-03-01 21:38:00,
2013-03-01 16:43:00,43.5,24.1,29.82,WNW,300,2.9,3.1,46,0.00,,,0.00,VWS V14.00,2013-03-01 21:43:00,
2013-03-01 16:48:00,43.3,24.5,29.82,SW,232,2.0,4.3,47,0.00,,,0.00,VWS V14.00,2013-03-01 21:48:00,
2013-03-01 16:53:00,43.3,24.5,29.82,West,278,4.7,5.4,47,0.00,,,0.00,VWS V14.00,2013-03-01 21:53:00,
2013-03-01 16:58:00,43.2,24.8,29.82,NW,322,2.9,3.6,48,0.00,,,0.00,VWS V14.00,2013-03-01 21:58:00,
2013-03-01 17:03:00,43.0,24.6,29.82,West,278,3.1,3.1,48,0.00,,,0.00,VWS V14.00,2013-03-01 22:03:00,
2013-03-01 17:08:00,43.0,24.6,29.82,WNW,300,1.6,2.7,48,0.00,,,0.00,VWS V14.00,2013-03-01 22:08:00,
2013-03-01 17:13:00,43.0,24.6,29.82,SW,232,1.6,3.4,48,0.00,,,0.00,VWS V14.00,2013-03-01 22:13:00,
2013-03-01 17:18:00,42.8,24.5,29.82,WSW,255,1.6,2.2,48,0.00,,,0.00,VWS V14.00,2013-03-01 22:18:00,
2013-03-01 17:23:00,42.8,24.5,29.82,WNW,300,0.0,3.1,48,0.00,,,0.00,VWS V14.00,2013-03-01 22:23:00,
2013-03-01 17:28:00,42.8,25.0,29.82,West,278,1.1,2.7,49,0.00,,,0.00,VWS V14.00,2013-03-01 22:28:00,
2013-03-01 17:34:00,42.8,25.0,29.82,West,278,1.6,2.0,49,0.00,,,0.00,VWS V14.00,2013-03-01 22:34:00,
2013-03-01 17:39:00,42.8,25.0,29.82,West,278,0.0,2.5,49,0.00,,,0.00,VWS V14.00,2013-03-01 22:39:00,
2013-03-01 17:44:00,42.6,24.8,29.82,West,278,1.1,2.0,49,0.00,,,0.00,VWS V14.00,2013-03-01 22:44:00,
2013-03-01 17:49:00,42.6,24.8,29.82,West,278,1.1,2.5,49,0.00,,,0.00,VWS V14.00,2013-03-01 22:49:00,
2013-03-01 17:54:00,42.4,24.6,29.82,West,278,0.0,2.0,49,0.00,,,0.00,VWS V14.00,2013-03-01 22:54:00,
2013-03-01 17:59:00,42.4,25.1,29.82,WSW,255,0.0,1.3,50,0.00,,,0.00,VWS V14.00,2013-03-01 22:59:00,
2013-03-01 18:04:00,42.3,25.0,29.82,WSW,255,0.0,0.0,50,0.00,,,0.00,VWS V14.00,2013-03-01 23:04:00,
2013-03-01 18:09:00,42.1,24.8,29.82,South,188,0.0,2.2,50,0.00,,,0.00,VWS V14.00,2013-03-01 23:09:00,
2013-03-01 18:14:00,42.1,24.8,29.82,WNW,300,0.0,1.3,50,0.00,,,0.00,VWS V14.00,2013-03-01 23:14:00,
2013-03-01 18:19:00,41.9,24.6,29.82,WNW,300,1.3,1.3,50,0.00,,,0.00,VWS V14.00,2013-03-01 23:19:00,
2013-03-01 18:24:00,41.9,24.6,29.82,WNW,300,1.6,2.0,50,0.00,,,0.00,VWS V14.00,2013-03-01 23:24:00,
2013-03-01 18:29:00,41.9,24.6,29.82,WNW,300,1.6,2.9,50,0.00,,,0.00,VWS V14.00,2013-03-01 23:29:00,
2013-03-01 18:34:00,42.1,24.3,29.85,WNW,300,2.9,4.9,49,0.00,,,0.00,VWS V14.00,2013-03-01 23:34:00,
2013-03-01 18:39:00,42.1,24.3,29.85,WNW,300,2.7,3.8,49,0.00,,,0.00,VWS V14.00,2013-03-01 23:39:00,
2013-03-01 18:44:00,41.9,24.1,29.85,NW,322,2.7,2.9,49,0.00,,,0.00,VWS V14.00,2013-03-01 23:44:00,
2013-03-01 18:50:00,41.7,24.5,29.85,NNW,345,1.6,2.2,50,0.00,,,0.00,VWS V14.00,2013-03-01 23:50:00,
2013-03-01 18:55:00,41.5,23.8,29.85,NW,322,3.1,3.8,49,0.00,,,0.00,VWS V14.00,2013-03-01 23:55:00,
2013-03-01 19:00:00,41.5,23.8,29.85,NNE,30,1.1,3.4,49,0.00,,,0.00,VWS V14.00,2013-03-02 00:00:00,
2013-03-01 19:05:00,41.4,24.1,29.85,NW,322,0.0,2.5,50,0.00,,,0.00,VWS V14.00,2013-03-02 00:05:00,
2013-03-01 19:10:00,41.2,24.0,29.85,NW,322,0.0,2.5,50,0.00,,,0.00,VWS V14.00,2013-03-02 00:10:00,
2013-03-01 19:15:00,41.2,24.0,29.85,WNW,300,0.0,0.0,50,0.00,,,0.00,VWS V14.00,2013-03-02 00:15:00,
2013-03-01 19:20:00,41.0,23.8,29.88,WNW,300,0.0,0.0,50,0.00,,,0.00,VWS V14.00,2013-03-02 00:20:00,
2013-03-01 19:25:00,40.8,24.1,29.88,NW,322,0.0,0.0,51,0.00,,,0.00,VWS V14.00,2013-03-02 00:25:00,
2013-03-01 19:30:00,40.6,23.5,29.88,NW,322,0.0,0.0,50,0.00,,,0.00,VWS V14.00,2013-03-02 00:30:00,
2013-03-01 19:35:00,40.6,23.9,29.88,NW,322,0.0,0.0,51,0.00,,,0.00,VWS V14.00,2013-03-02 00:35:00,
2013-03-01 19:40:00,40.5,23.8,29.88,NW,322,0.0,0.0,51,0.00,,,0.00,VWS V14.00,2013-03-02 00:40:00,
2013-03-01 19:45:00,40.3,23.6,29.88,NW,322,0.0,0.0,51,0.00,,,0.00,VWS V14.00,2013-03-02 00:45:00,
2013-03-01 19:50:00,40.3,23.6,29.88,NE,52,0.0,0.0,51,0.00,,,0.00,VWS V14.00,2013-03-02 00:50:00,
2013-03-01 19:55:00,40.1,23.4,29.88,NE,52,0.0,0.0,51,0.00,,,0.00,VWS V14.00,2013-03-02 00:55:00,
2013-03-01 20:01:00,39.9,23.7,29.88,SSW,210,0.0,0.0,52,0.00,,,0.00,VWS V14.00,2013-03-02 01:01:00,
2013-03-01 20:06:00,39.7,24.0,29.88,WNW,300,0.0,0.0,53,0.00,,,0.00,VWS V14.00,2013-03-02 01:06:00,
2013-03-01 20:11:00,39.6,23.9,29.88,WNW,300,0.0,0.0,53,0.00,,,0.00,VWS V14.00,2013-03-02 01:11:00,
2013-03-01 20:16:00,39.6,24.3,29.88,WNW,300,0.0,0.0,54,0.00,,,0.00,VWS V14.00,2013-03-02 01:16:00,
2013-03-01 20:21:00,39.6,23.9,29.88,WNW,300,1.3,1.3,53,0.00,,,0.00,VWS V14.00,2013-03-02 01:21:00,
2013-03-01 20:26:00,39.6,23.9,29.88,NW,322,0.0,0.0,53,0.00,,,0.00,VWS V14.00,2013-03-02 01:26:00,
2013-03-01 20:31:00,39.4,23.7,29.88,NW,322,0.0,0.0,53,0.00,,,0.00,VWS V14.00,2013-03-02 01:31:00,
2013-03-01 20:36:00,39.4,24.1,29.88,NW,322,0.0,0.0,54,0.00,,,0.00,VWS V14.00,2013-03-02 01:36:00,
2013-03-01 20:41:00,39.2,24.0,29.88,NW,322,0.0,0.0,54,0.00,,,0.00,VWS V14.00,2013-03-02 01:41:00,
2013-03-01 20:46:00,39.2,24.0,29.88,NW,322,0.0,0.0,54,0.00,,,0.00,VWS V14.00,2013-03-02 01:46:00,
2013-03-01 20:51:00,39.2,24.0,29.88,NW,322,0.0,0.0,54,0.00,,,0.00,VWS V14.00,2013-03-02 01:51:00,
2013-03-01 20:56:00,39.2,24.0,29.88,NW,322,1.3,1.3,54,0.00,,,0.00,VWS V14.00,2013-03-02 01:56:00,
2013-03-01 21:02:00,39.2,24.4,29.88,NW,322,0.0,0.0,55,0.00,,,0.00,VWS V14.00,2013-03-02 02:02:00,
2013-03-01 21:07:00,39.0,24.2,29.88,NW,322,0.0,0.0,55,0.00,,,0.00,VWS V14.00,2013-03-02 02:07:00,
2013-03-01 21:12:00,38.8,24.5,29.88,NW,322,0.0,0.0,56,0.00,,,0.00,VWS V14.00,2013-03-02 02:12:00,
2013-03-01 21:17:00,38.8,24.1,29.88,WNW,300,0.0,1.3,55,0.00,,,0.00,VWS V14.00,2013-03-02 02:17:00,
2013-03-01 21:22:00,38.8,24.1,29.88,West,278,0.0,1.3,55,0.00,,,0.00,VWS V14.00,2013-03-02 02:22:00,
2013-03-01 21:27:00,38.7,24.3,29.88,West,278,0.0,0.0,56,0.00,,,0.00,VWS V14.00,2013-03-02 02:27:00,
2013-03-01 21:32:00,38.5,23.7,29.88,WNW,300,0.0,0.0,55,0.00,,,0.00,VWS V14.00,2013-03-02 02:32:00,
2013-03-01 21:37:00,38.1,23.4,29.88,WNW,300,0.0,0.0,55,0.00,,,0.00,VWS V14.00,2013-03-02 02:37:00,
2013-03-01 21:42:00,37.8,23.5,29.88,WNW,300,0.0,0.0,56,0.00,,,0.00,VWS V14.00,2013-03-02 02:42:00,
2013-03-01 21:47:00,37.4,23.1,29.88,WNW,300,0.0,0.0,56,0.00,,,0.00,VWS V14.00,2013-03-02 02:47:00,
2013-03-01 21:52:00,37.4,23.1,29.88,WNW,300,0.0,0.0,56,0.00,,,0.00,VWS V14.00,2013-03-02 02:52:00,
2013-03-01 21:57:00,37.2,23.0,29.88,NW,322,0.0,0.0,56,0.00,,,0.00,VWS V14.00,2013-03-02 02:57:00,
2013-03-01 22:02:00,37.0,23.2,29.88,NNW,345,0.0,2.0,57,0.00,,,0.00,VWS V14.00,2013-03-02 03:02:00,
2013-03-01 22:07:00,37.4,24.0,29.88,NW,322,0.0,1.6,58,0.00,,,0.00,VWS V14.00,2013-03-02 03:07:00,
2013-03-01 22:12:00,37.4,23.6,29.88,NW,322,0.0,0.0,57,0.00,,,0.00,VWS V14.00,2013-03-02 03:12:00,
2013-03-01 22:17:00,37.4,23.6,29.88,NW,322,0.0,0.0,57,0.00,,,0.00,VWS V14.00,2013-03-02 03:17:00,
2013-03-01 22:22:00,37.6,24.6,29.88,NW,322,1.1,1.6,59,0.00,,,0.00,VWS V14.00,2013-03-02 03:22:00,
2013-03-01 22:28:00,37.4,24.4,29.88,NW,322,0.0,0.0,59,0.00,,,0.00,VWS V14.00,2013-03-02 03:28:00,
2013-03-01 22:33:00,37.4,23.6,29.88,NE,52,0.0,0.0,57,0.00,,,0.00,VWS V14.00,2013-03-02 03:33:00,
2013-03-01 22:38:00,37.6,23.3,29.88,North,8,0.0,0.0,56,0.00,,,0.00,VWS V14.00,2013-03-02 03:38:00,
2013-03-01 22:43:00,37.4,22.7,29.88,North,8,0.0,1.6,55,0.00,,,0.00,VWS V14.00,2013-03-02 03:43:00,
2013-03-01 22:48:00,37.0,22.8,29.88,North,8,0.0,0.0,56,0.00,,,0.00,VWS V14.00,2013-03-02 03:48:00,
2013-03-01 22:53:00,36.3,22.6,29.88,NNW,345,0.0,0.0,57,0.00,,,0.00,VWS V14.00,2013-03-02 03:53:00,
2013-03-01 22:58:00,36.0,22.2,29.88,NNW,345,0.0,0.0,57,0.00,,,0.00,VWS V14.00,2013-03-02 03:58:00,
2013-03-01 23:03:00,35.6,21.9,29.88,WNW,300,0.0,0.0,57,0.00,,,0.00,VWS V14.00,2013-03-02 04:03:00,
2013-03-01 23:08:00,35.4,22.1,29.88,North,8,0.9,2.0,58,0.00,,,0.00,VWS V14.00,2013-03-02 04:08:00,
2013-03-01 23:13:00,35.1,21.8,29.88,North,8,0.0,0.0,58,0.00,,,0.00,VWS V14.00,2013-03-02 04:13:00,
2013-03-01 23:18:00,34.9,21.6,29.88,NW,322,0.0,0.0,58,0.00,,,0.00,VWS V14.00,2013-03-02 04:18:00,
2013-03-01 23:23:00,34.3,21.5,29.88,NW,322,0.0,0.0,59,0.00,,,0.00,VWS V14.00,2013-03-02 04:23:00,
2013-03-01 23:29:00,34.0,21.6,29.88,NW,322,0.0,0.0,60,0.00,,,0.00,VWS V14.00,2013-03-02 04:29:00,
2013-03-01 23:34:00,33.8,21.4,29.88,NW,322,0.0,0.0,60,0.00,,,0.00,VWS V14.00,2013-03-02 04:34:00,
2013-03-01 23:39:00,33.4,21.5,29.88,NW,322,0.0,0.0,61,0.00,,,0.00,VWS V14.00,2013-03-02 04:39:00,
2013-03-01 23:44:00,33.3,21.3,29.88,NW,322,0.0,0.0,61,0.00,,,0.00,VWS V14.00,2013-03-02 04:44:00,
2013-03-01 23:49:00,32.7,21.1,29.88,NW,322,0.0,0.0,62,0.00,,,0.00,VWS V14.00,2013-03-02 04:49:00,
2013-03-01 23:54:00,32.4,20.8,29.85,NW,322,0.0,0.0,62,0.00,,,0.00,VWS V14.00,2013-03-02 04:54:00,
2013-03-01 23:59:00,32.0,20.5,29.85,NW,322,0.0,0.0,62,0.00,,,0.00,VWS V14.00,2013-03-02 04:59:00,